Regional Weather Roundup
Issued by NWS

Home | Current Version | Previous Version | Text Only | Print | Product List | Glossary Off
Versions: 1 2 3 4 5 6 7 8 9 10 11 12 13 14 15 16 17 18 19 20 21 22 23 24 25 26 27 28 29 30 31 32 33 34 35 36 37 38 39 40 41 42 43 44 45 46 47 48 49 50

000
ASUS45 KSLC 050510
RWRUT

UTAH REGIONAL WEATHER ROUNDUP
NATIONAL WEATHER SERVICE SALT LAKE CITY UT
1100 PM MDT SAT JUL 04 2015

UTZ001>011-023>025-050600-

NORTHERN UTAH

CITY           SKY/WX    TMP DP  RH WIND       PRES   REMARKS
BRIGHAM CITY   CLOUDY    82  51  34 S7G18     29.97S
HILL AFB       CLOUDY    79  54  41 SW5       30.01R
LOGAN          CLEAR     82  53  36 S21G30    29.94R
OGDEN          CLOUDY    80  56  43 S3        29.98R
PROVO AIRPORT  MOCLDY    75  55  50 S10       29.99S
SALT LAKE CITY CLOUDY    82  56  40 NE5       29.95R
VERNAL         CLOUDY    80  46  30 S10       29.99S
WENDOVER       CLOUDY    82  46  28 W13       29.97R
HEBER CITY     MOCLDY    72  52  49 NE6       30.07R
WEST JORDAN    MOCLDY    81  50  34 S3        29.99R

$$

UTZ012>022-026-027-050600-

SOUTHERN/CENTRAL UTAH

CITY           SKY/WX    TMP DP  RH WIND       PRES   REMARKS
BLANDING       CLOUDY    65  59  80 E13       30.28R
BRYCE CANYON   CLOUDY    61  54  77 W6        30.26R
CEDAR CITY     CLOUDY    73  52  47 S6        30.11R
DELTA          CLOUDY    77  50  38 CALM      30.02R
HANKSVILLE     CLOUDY    75  61  60 E7        30.01R
MILFORD        CLOUDY    77  50  38 S9        30.03R
MOAB/CYNLANDS  LGT RAIN  74  60  61 SE14G23   30.07R
PRICE          CLOUDY    80  44  27 NW12      30.05R
ST GEORGE      MOCLDY    84  46  26 SE5       29.92R
KANAB          PTCLDY    72  54  53 CALM      30.13R

$$

REGIONAL REPORTS     COLORADO/ARIZONA

CITY           SKY/WX    TMP DP  RH WIND       PRES   REMARKS
CRAIG, CO      CLOUDY    63  53  70 SE5       30.11R
GRAND JUNCTION CLOUDY    80  50  34 E15       30.00R
RIFLE          MOCLDY    68  58  70 SW3       30.11S
MONTROSE       CLOUDY    75  51  43 S6        30.12R
CORTEZ         CLOUDY    68  54  60 N8        30.19R
PAGE, AZ       MOCLDY    85  49  28 SW3       30.00R
GRAND CANYON   MOCLDY    64  55  72 S3        30.23R
KINGMAN        MOCLDY    82  48  30 S9        29.97R
FLAGSTAFF      MOCLDY    58  57  97 CALM      30.28R

$$

REGIONAL REPORTS    NEVADA/IDAHO/WYOMING

CITY           SKY/WX    TMP DP  RH WIND       PRES   REMARKS
LAS VEGAS, NV  PTCLDY    94  50  22 S8        29.79R HX  91
ELY            CLOUDY    68  49  50 NW5       30.15R
ELKO           CLOUDY    70  51  51 SW9       30.08R
POCATELLO, ID  CLEAR     79  47  32 SW10      29.90R
BURLEY         CLOUDY    77  50  38 SW14      29.89R
EVANSTON, WY   MOCLDY    69  47  45 SW16      30.17R
ROCK SPRINGS   PTCLDY    72  44  36 SW17      30.09R
KEMMERER       MOCLDY   N/A N/A N/A SW7       30.15S

$$


USA.gov is the U.S. government's official web portal to all federal, state and local government web resources and services.